Regional Weather Roundup
Issued by NWS Glasgow, MT

Home | Current Version | Previous Version | Text Only | Print | Product List | Glossary On
Versions: 1 2 3 4 5 6 7 8 9 10 11 12 13 14 15 16 17 18 19 20 21 22 23 24 25 26 27 28 29 30 31 32 33 34 35 36 37 38 39 40 41 42 43 44 45 46 47 48 49 50
000
ASUS45 KGGW 300415
RWRGGW
HOURLY WEATHER ROUNDUP FOR NORTHEAST MONTANA
NATIONAL WEATHER SERVICE GLASGOW MONTANA
1000 PM MDT SUN MAR 29 2015

NOTE: "FAIR" INDICATES FEW OR NO CLOUDS BELOW 12,000 FEET WITH NO
SIGNIFICANT WEATHER AND/OR OBSTRUCTIONS TO VISISBILITY.

NORTHEAST MONTANA


CITY           SKY/WX    TMP DP  RH WIND       PRES   REMARKS
GLASGOW        CLEAR     47  31  53 SW8       29.88F
PLENTYWOOD       N/A     44  32  62 SW8G20      N/A
WOLF POINT     PTCLDY    42  34  73 CALM      29.89F
JORDAN           N/A     43  33  68 W7        29.94F
WINNETT          N/A     40  30  67 SW5G13      N/A
SIDNEY         PTCLDY    46  32  57 SW10      29.91F
GLENDIVE         N/A     39  28  65 W5        29.95F
MALTA            N/A     45  32  60 SW8         N/A

FORT PECK REPORTS


CITY           SKY/WX    TMP DP  RH WIND       PRES   REMARKS
FORT PECK        N/A     42  35  76 S12         N/A
THE PINES        N/A     48  30  49 SW5         N/A

SOUTHEAST MONTANA


CITY           SKY/WX    TMP DP  RH WIND       PRES   REMARKS
BILLINGS       MOCLDY    55  20  25 SW6       30.02F
MILES CITY     MOCLDY    47  26  44 SW7       29.97F
BAKER          CLEAR     45  27  49 VRB3      29.99S
LIVINGSTON     PTCLDY    56  21  25 W25       30.09R

CENTRAL MONTANA


CITY           SKY/WX    TMP DP  RH WIND       PRES   REMARKS
HAVRE          PTCLDY    49  32  52 SW16      29.93S
LEWISTOWN      PTCLDY    44  29  55 SW10      30.01S
GREAT FALLS    CLOUDY    53  29  39 SW33G43   29.99F
CUT BANK       CLOUDY    48  30  49 SW21      29.97R
HELENA         MOCLDY    53  29  39 SW5       30.13R
BUTTE          PTCLDY    44  26  49 NW6       30.18S
BOZEMAN        MOCLDY    47  25  42 E3        30.15R

WESTERN MONTANA


CITY           SKY/WX    TMP DP  RH WIND       PRES   REMARKS
MISSOULA       MOCLDY    47  34  60 N6        30.17F
KALISPELL      NOT AVBL

NORTH DAKOTA


CITY           SKY/WX    TMP DP  RH WIND       PRES   REMARKS
WILLISTON      PTCLDY    43  33  68 SW6       29.89F
DICKINSON      CLOUDY    41  30  65 SW3       29.93F
MINOT          PTCLDY    41  31  67 SE3       29.89F
BISMARCK       MOCLDY    39  29  67 CALM      29.96F

SOUTHERN SASKATCHEWAN


CITY           SKY/WX    TMP DP  RH WIND       PRES   REMARKS
REGINA         PTCLDY    41  37  87 SE9       29.81F
ESTEVAN        PTCLDY    39  34  81 SE7       29.86F
SWIFT CURRENT  MOCLDY    46  34  61 SW16      29.77F



USA.gov is the U.S. government's official web portal to all federal, state and local government web resources and services.